Weather in Novosergeyevka

Russia / Amur Oblast     50°54′49″N   128°47′38″E
temp.,
°C
wind,
m/s
gust,
m/s
humid.,
%
clouds,
%
prec.,
mm/h
press.,
hPa
HPBL,
m
14 april, wed
wed1400:00−5nnw5955100 0.0 1006998
03:00−6nw376598 0.0 1005473
06:00−7nnw377150 0.0 1006640
09:00−4nnw5746100 0.0 10071335
12:00−1nnw7830100 0.1 10062196
15:00+1nnw5725100 0.1 10062512
18:000nnw472829 0.0 10062116
21:00−3n11375 0.0 100710
15 april, thu
thu1500:00−4w11394 0.0 100810
03:00−4w33425 0.0 100938
06:00−4nw22455 0.0 100927
09:00+1wsw33305 0.0 1010746
12:00+4wsw452627 0.0 10102167
15:00+6wsw342588 0.0 10092091
18:00+6ssw1128100 0.0 10101095
21:00+2sse2339100 0.0 101253
16 april, fri
fri1600:00+1e2340100 0.0 101139
03:00+1ene5944100 0.0 1011257
06:000ene51151100 1.0 1010315
09:00−1ene71291100 3.4 1010596
12:00+1ne71099100 2.6 1010571
15:00+2ne61198100 4.1 1009440
18:00+2nne71191100 0.2 1009496
21:00+1nne71398100 0.6 1010428
17 april, sat
sat1700:00+1nne61198100 0.0 1010344
03:00+1nne5998100 0.0 1009282
06:00+1n4897100 0.0 1010326
09:00+3n458398 0.0 1012369
12:00+7n336436 0.0 1012835
15:00+10nnw334711 0.0 10101249
18:00+10nw12415 0.0 1010879
21:00+6wsw22510 0.0 101210
18 april, sun
sun1800:00+4wsw22643 0.0 101221
03:00+2sw33750 0.0 101124
06:00+1ssw33840 0.0 101139
09:00+7s45580 0.0 1011388
12:00+12s45335 0.0 1009955
15:00+14sw44295 0.0 10071312
18:00+13sw33410 0.0 1007766
21:00+9s22625 0.0 100913